Location: Observatoire
(46.1952°N, 5.3391°E)
Time: 12:56:15
(UTC+01:00)

Explorer 7 - Pass Details

Date: 23 February 2026
Orbit: 430 x 540 km, 50.2° (Epoch: 17 March)

Event Time Altitude Azimuth Distance (km) Brightness Sun altitude
Rises 18:39:23 0° 293° (WNW) 2,484 11.3 -4.8°
Reaches altitude 10° 18:41:30 10° 291° (WNW) 1,626 10.3 -5.1°
Maximum altitude 18:45:09 72° 208° (SSW) 510 6.8 -5.8°
Drops below altitude 10° 18:48:57 10° 124° (ESE) 1,687 8.9 -6.4°
Enters shadow 18:50:37 - 122° (ESE) 2,356 9.6 -6.7°
Sets 18:51:11 0° 122° (ESE) 2,589 - -6.8°
